This is the latest recevied weather packets stored in our database for station/object WA6ODQ-13. If no packets are shown the sender has not sent any weather packets the latest 10 day(s).
| Time | Temp. | Humidity | Pressure | Rain* | Wind** | Luminosity | Snow |
|---|---|---|---|---|---|---|---|
| 1777773543 | 16.67° C | 72% | 1007.6 hPa | 0 mm | - | 50 W/m² | - |
| 1777773240 | 16.67° C | 71% | 1007.6 hPa | 0 mm | - | 56 W/m² | - |
| 1777772936 | 17.22° C | 71% | 1007.6 hPa | 0 mm | - | 61 W/m² | - |
| 1777772065 | 17.78° C | 70% | 1007.7 hPa | 0 mm | - | 100 W/m² | - |
| 1777771762 | 17.78° C | 70% | 1007.7 hPa | 0 mm | - | 100 W/m² | - |
| 1777771460 | 17.78° C | 70% | 1007.8 hPa | 0 mm | - | 106 W/m² | - |
| 1777771155 | 18.33° C | 69% | 1007.9 hPa | 0 mm | - | 102 W/m² | - |
| 1777770852 | 18.33° C | 70% | 1007.8 hPa | 0 mm | - | 116 W/m² | - |
| 1777770550 | 18.33° C | 69% | 1007.8 hPa | 0 mm | - | 135 W/m² | - |
| 1777770246 | 18.33° C | 69% | 1007.9 hPa | 0 mm | - | 126 W/m² | - |
| 1777769943 | 18.89° C | 68% | 1007.6 hPa | 0 mm | - | 163 W/m² | - |
| 1777769641 | 18.89° C | 68% | 1007.9 hPa | 0 mm | - | 190 W/m² | - |
| 1777769337 | 18.89° C | 67% | 1007.9 hPa | 0 mm | - | 171 W/m² | - |
| 1777769034 | 18.89° C | 68% | 1007.8 hPa | 0 mm | - | 170 W/m² | - |
| 1777768732 | 18.89° C | 68% | 1007.9 hPa | 0 mm | - | 149 W/m² | - |
| 1777768428 | 18.89° C | 68% | 1007.6 hPa | 0 mm | - | 196 W/m² | - |
| 1777768125 | 18.89° C | 68% | 1007.9 hPa | 0 mm | - | 227 W/m² | - |
| 1777767823 | 18.89° C | 69% | 1007.9 hPa | 0 mm | - | 228 W/m² | - |
| 1777767518 | 18.89° C | 68% | 1008.1 hPa | 0 mm | - | 210 W/m² | - |
| 1777767215 | 18.89° C | 68% | 1008.2 hPa | 0 mm | - | 223 W/m² | - |
| 1777766913 | 18.89° C | 67% | 1008.2 hPa | 0 mm | - | 215 W/m² | - |
| 1777766610 | 19.44° C | 65% | 1008.2 hPa | 0 mm | - | 248 W/m² | - |
| 1777766307 | 19.44° C | 66% | 1008.2 hPa | 0 mm | - | 308 W/m² | - |
| 1777766004 | 19.44° C | 67% | 1008.2 hPa | 0 mm | - | 235 W/m² | - |
| 1777765701 | 19.44° C | 67% | 1008.2 hPa | 0 mm | - | 341 W/m² | - |
* Rain latest hour (hover to see other rain measurements)
** Current wind speed in m/s (hover to see current wind gust speed)